Temp
74 73 72 72 71 70 69 70 69 69 70 69 69 68 68 68 68 67 66 66 66 65 63 61 60 60 59 59 59 59 57 54 46 54 55 56 53 57 57 56 59 58 60
74 73 72 71 70 69 69 70 70 70 70 70 70 69 69 69 68 67 67 67 66 64 64 63 59 61 58 57 58 55 54 53 48 47 52 54 56 56 56 57 57 59 57
74 72 70 69 69 69 69 70 70 70 70 70 70 69 69 68 68 68 68 67 66 65 64 61 58 57 54 56 56 55 56 55 54 51 51 54 54 54 53 55 57 56 59
72 71 69 68 69 70 70 70 70 69 69 69 69 69 69 69 69 68 68 66 66 65 64 62 58 56 54 54 55 54 54 52 53 50 52 52 53 54 52 51 52 58 55
71 70 69 70 70 70 69 70 69 68 68 69 68 68 69 69 71 67 66 65 64 63 63 62 59 56 55 54 53 55 51 49 49 48 50 51 49 49 48 51 51 53 54
69 70 71 70 70 69 69 68 68 68 68 68 67 67 67 70 52 52 54 63 63 62 58 59 60 56 55 52 52 51 50 46 45 47 48 47 48 48 50 49 50 48 47
70 71 71 70 70 69 69 68 67 66 66 66 66 67 66 67 54 50 51 60 61 60 57 59 58 59 53 53 53 51 50 50 49 48 45 48 47 50 48 49 50 48 49
70 71 71 70 70 70 68 67 66 66 65 65 66 66 66 66 51 49 49 58 61 60 59 58 55 55 54 52 52 52 51 50 50 51 50 50 51 51 51 50 50 50 53
71 71 71 71 70 69 67 66 66 66 65 65 67 66 65 65 51 47 49 60 61 60 58 57 55 54 50 46 50 49 50 50 50 49 48 46 45 45 47 53 49 48 48
71 70 71 71 69 67 67 66 66 66 66 68 66 66 62 63 51 47 50 60 57 57 56 55 53 52 48 45 49 47 44 46 46 46 46 47 49 52 48 51 50 44 43
71 70 70 70 68 67 66 66 66 65 66 65 65 65 65 63 62 48 45 58 58 54 52 52 54 47 44 43 43 46 45 46 45 44 45 45 48 53 53 54 51 51 45
69 68 68 69 69 70 65 65 66 65 64 65 65 66 69 67 54 50 46 45 50 54 50 52 51 45 43 43 43 44 42 43 44 43 42 42 46 51 52 55 53 54 55
67 67 68 68 69 68 65 65 66 67 67 66 67 66 66 67 66 48 46 44 46 53 53 49 44 43 43 44 43 42 42 43 42 41 41 42 44 51 51 53 54 55 58
66 66 68 67 66 67 69 70 68 68 67 67 66 64 64 64 64 61 59 57 52 52 49 48 46 43 43 44 43 44 44 43 42 41 41 43 44 47 49 53 51 53 56
66 67 68 71 68 67 69 68 68 68 62 64 64 62 61 59 58 46 45 48 48 45 40 43 43 42 41 41 42 43 43 42 40 40 40 40 41 42 48 52 49 51 54
65 68 69 70 70 70 69 68 50 47 45 43 41 47 59 48 42 41 41 39 38 38 40 40 39 39 39 39 39 39 40 40 40 40 40 39 39 39 45 50 47 50 51
66 66 71 64 70 69 68 68 66 62 44 42 41 41 40 40 41 41 39 39 38 39 39 39 38 38 38 38 38 38 38 39 39 39 39 39 39 39 43 45 44 50 46
65 48 70 71 70 69 68 68 68 66 64 64 48 46 43 41 41 39 39 39 40 40 39 38 38 37 37 37 37 37 37 37 37 38 37 38 38 39 44 43 43 44 43
68 70 70 71 71 65 69 68 68 66 64 63 63 54 49 43 42 40 39 40 38 38 38 37 37 37 37 37 37 37 37 37 38 39 38 38 39 39 41 43 42 37 38
65 50 54 71 71 69 68 67 65 64 63 62 57 51 50 45 42 41 40 39 38 37 36 37 36 36 36 37 37 36 37 37 37 37 38 38 39 40 42 42 44 44 45
71 69 49 72 69 67 66 65 64 63 62 58 54 50 35 41 40 39 38 38 37 36 36 36 36 36 36 36 36 36 37 37 37 37 38 38 39 40 43 42 46 45 47
72 71 70 68 67 65 64 65 64 62 60 55 53 48 37 42 40 39 37 37 37 37 37 36 36 36 36 36 36 35 36 37 38 38 38 39 39 42 41 42 45 47 46
71 70 68 67 66 55 63 64 63 61 59 55 50 46 43 40 39 38 37 37 37 37 38 38 37 37 38 39 39 37 36 38 39 39 39 40 40 40 41 42 46 45 45
68 67 66 66 63 64 62 62 61 51 55 52 47 43 41 40 38 37 37 37 38 38 39 39 38 38 38 38 39 39 38 39 40 42 44 41 40 41 43 45 45 45 45
67 66 66 64 63 62 62 61 58 57 53 49 44 43 41 40 38 37 37 37 38 38 39 39 40 39 38 39 41 41 35 34 42 39 42 42 42 43 44 46 46 46 46
66 65 64 64 62 62 61 59 54 52 52 47 44 42 41 39 37 37 37 37 38 39 39 40 42 41 43 42 39 34 33 34 40 35 43 44 44 45 47 46 47 47 48
MSLP
1015.08 1015.63 1016.13 1016.45 1016.89 1017.32 1017.53 1017.71 1017.87 1018.12 1018.16 1018.14 1018.10 1017.96 1018.01 1017.92 1017.77 1017.68 1017.61 1017.31 1016.88 1016.59 1016.49 1016.32 1016.11 1015.99 1015.92 1015.70 1015.33 1014.72 1014.59 1014.50 1014.03 1013.03 1012.82 1012.53 1012.24 1011.54 1011.35 1010.98 1010.39 1009.98 1009.24
1015.18 1015.65 1016.03 1016.50 1016.93 1017.31 1017.41 1017.60 1017.82 1017.78 1017.82 1017.74 1017.81 1017.65 1017.61 1017.46 1017.36 1017.21 1016.92 1016.67 1016.38 1016.05 1015.79 1015.60 1015.58 1015.49 1015.37 1015.32 1014.83 1014.63 1014.57 1014.49 1014.20 1013.30 1012.69 1012.06 1011.49 1011.21 1010.86 1010.26 1009.82 1009.36 1008.97
1014.97 1015.57 1016.14 1016.59 1016.84 1016.99 1017.14 1017.43 1017.59 1017.50 1017.54 1017.46 1017.40 1017.27 1017.10 1017.01 1016.88 1016.69 1016.46 1016.21 1015.97 1015.73 1015.54 1015.51 1015.48 1015.35 1015.20 1014.86 1014.65 1014.36 1013.92 1013.77 1013.55 1013.12 1012.31 1011.93 1011.41 1011.03 1010.56 1009.93 1009.25 1008.84 1008.21
1014.75 1015.24 1015.83 1016.31 1016.45 1016.51 1016.84 1017.04 1017.24 1017.31 1017.41 1017.39 1017.17 1017.00 1016.87 1016.66 1016.42 1016.24 1016.03 1015.82 1015.61 1015.41 1015.35 1015.23 1015.19 1015.15 1014.91 1014.72 1014.37 1014.15 1013.81 1013.66 1013.29 1012.94 1012.01 1011.40 1011.12 1010.72 1010.59 1009.85 1008.89 1008.12 1007.75
1014.33 1014.95 1015.39 1015.89 1016.20 1016.35 1016.45 1016.77 1016.93 1017.11 1017.12 1017.16 1016.98 1016.74 1016.51 1016.40 1015.82 1015.90 1015.97 1015.62 1015.23 1015.03 1014.90 1014.74 1014.75 1014.84 1014.81 1014.88 1014.66 1013.85 1013.78 1013.58 1013.26 1012.74 1011.83 1011.23 1010.97 1010.57 1010.17 1009.78 1008.89 1008.23 1007.75
1014.00 1014.54 1015.16 1015.64 1015.83 1016.15 1016.34 1016.58 1016.69 1016.74 1016.67 1016.71 1016.53 1016.26 1016.09 1015.74 1015.75 1016.09 1016.26 1015.55 1015.10 1014.67 1014.54 1014.47 1014.34 1014.45 1014.40 1014.49 1014.30 1014.10 1014.00 1013.61 1013.19 1012.70 1012.00 1011.32 1010.89 1010.67 1010.19 1009.79 1008.93 1008.33 1007.65
1014.15 1014.49 1014.94 1015.21 1015.54 1016.01 1016.19 1016.34 1016.46 1016.43 1016.44 1016.37 1016.15 1015.89 1015.64 1015.42 1015.45 1015.81 1016.02 1015.69 1015.01 1014.45 1014.38 1014.00 1014.01 1013.97 1014.22 1013.99 1013.57 1013.45 1013.24 1013.06 1012.90 1012.58 1011.97 1011.30 1010.87 1010.41 1010.25 1009.51 1008.75 1008.53 1007.96
1013.96 1014.20 1014.57 1014.97 1015.37 1015.77 1016.05 1016.10 1016.24 1016.20 1016.05 1015.89 1015.71 1015.42 1015.28 1015.10 1015.27 1015.57 1015.91 1015.52 1014.47 1013.85 1013.53 1013.48 1013.73 1013.71 1013.59 1013.57 1013.32 1012.76 1012.53 1012.38 1012.05 1011.75 1011.47 1011.09 1010.85 1010.57 1010.12 1009.62 1008.96 1008.50 1007.74
1013.54 1013.96 1014.41 1014.86 1015.27 1015.58 1015.78 1015.87 1015.98 1015.83 1015.77 1015.52 1015.25 1015.09 1014.86 1014.83 1015.19 1015.53 1015.69 1014.74 1013.62 1013.17 1013.00 1012.88 1012.91 1012.92 1012.98 1013.33 1013.08 1012.45 1012.01 1011.73 1011.52 1011.40 1011.23 1011.08 1010.86 1010.58 1010.37 1009.59 1008.65 1008.19 1007.58
1013.31 1013.92 1014.35 1014.84 1015.40 1015.51 1015.68 1015.78 1015.69 1015.63 1015.34 1014.96 1014.80 1014.61 1014.54 1014.73 1014.89 1015.38 1015.48 1014.55 1013.73 1013.08 1012.75 1012.42 1012.11 1012.06 1012.11 1012.52 1012.60 1012.24 1011.81 1011.45 1011.30 1011.03 1010.88 1010.50 1010.02 1009.50 1009.41 1009.35 1008.76 1008.41 1008.10
1013.65 1014.23 1014.60 1014.92 1015.30 1015.50 1015.70 1015.63 1015.53 1015.27 1015.07 1014.84 1014.47 1014.31 1014.05 1013.94 1014.22 1014.64 1015.00 1014.54 1013.79 1013.34 1012.93 1012.43 1011.97 1011.80 1011.91 1012.01 1012.00 1011.88 1011.45 1011.29 1011.05 1010.82 1010.45 1010.22 1009.62 1008.81 1008.60 1008.41 1008.49 1008.06 1008.00
1013.95 1014.31 1014.65 1014.93 1015.13 1015.09 1015.46 1015.45 1015.22 1015.04 1014.65 1014.16 1013.84 1013.48 1012.98 1013.24 1013.57 1013.86 1014.22 1014.14 1013.93 1013.32 1012.63 1012.22 1011.94 1011.71 1011.65 1011.44 1011.32 1010.99 1010.93 1011.02 1010.66 1010.38 1010.18 1009.94 1009.28 1008.40 1008.21 1008.08 1008.05 1007.70 1007.36
1014.17 1014.34 1014.65 1014.95 1015.00 1015.15 1015.24 1015.08 1014.74 1014.26 1013.83 1013.40 1013.08 1012.84 1012.83 1012.97 1013.07 1013.37 1013.62 1013.74 1013.39 1012.80 1012.39 1011.98 1011.84 1011.30 1010.85 1010.44 1010.19 1010.07 1010.30 1010.32 1010.20 1010.01 1009.76 1009.64 1009.41 1008.70 1008.50 1007.95 1007.58 1007.08 1006.64
1014.00 1014.54 1014.78 1014.78 1014.89 1014.98 1014.74 1014.27 1014.15 1013.90 1013.73 1013.42 1013.21 1013.07 1013.17 1013.03 1012.85 1013.32 1013.68 1013.34 1012.71 1012.27 1012.01 1011.68 1011.36 1010.94 1010.38 1010.05 1009.82 1009.71 1009.70 1009.81 1009.88 1009.75 1009.56 1009.41 1009.39 1009.01 1008.13 1007.57 1007.48 1006.91 1006.14
1013.94 1014.54 1014.83 1014.52 1014.68 1014.57 1014.26 1014.13 1014.05 1013.97 1014.46 1014.53 1014.18 1014.08 1013.76 1013.52 1013.88 1014.86 1014.72 1014.06 1013.45 1012.89 1012.45 1011.69 1011.06 1010.60 1010.20 1009.97 1009.73 1009.50 1009.40 1009.48 1009.59 1009.62 1009.45 1009.35 1009.22 1008.97 1008.07 1007.64 1007.67 1007.17 1006.24
1014.26 1014.31 1014.38 1014.39 1014.26 1013.96 1013.75 1013.59 1013.97 1014.19 1014.54 1014.77 1014.82 1014.91 1014.57 1014.87 1014.83 1014.65 1014.23 1013.90 1013.36 1012.76 1012.19 1011.56 1011.04 1010.68 1010.34 1009.98 1009.83 1009.63 1009.31 1009.35 1009.38 1009.40 1009.38 1009.30 1009.18 1008.97 1008.29 1007.74 1007.87 1007.32 1006.66
1014.40 1014.59 1014.21 1014.41 1014.09 1013.79 1013.64 1013.53 1013.35 1013.60 1014.14 1014.19 1014.53 1014.79 1014.74 1014.87 1014.77 1014.37 1014.16 1013.66 1013.07 1012.67 1012.10 1011.62 1011.21 1010.83 1010.49 1010.17 1009.94 1009.70 1009.48 1009.37 1009.39 1009.33 1009.31 1009.25 1009.17 1009.01 1008.60 1008.14 1008.05 1007.40 1007.31
1014.82 1014.93 1014.31 1014.24 1014.10 1013.84 1013.67 1013.54 1013.39 1013.24 1013.30 1013.42 1013.97 1014.39 1014.72 1014.76 1014.67 1014.45 1014.10 1013.44 1013.01 1012.53 1012.20 1011.73 1011.33 1010.96 1010.60 1010.28 1009.99 1009.78 1009.54 1009.48 1009.41 1009.29 1009.25 1009.23 1009.14 1008.99 1008.40 1008.36 1008.24 1007.91 1007.69
1014.74 1014.38 1014.45 1014.36 1014.09 1014.21 1013.71 1013.52 1013.30 1013.41 1013.43 1013.41 1013.33 1013.98 1014.64 1015.01 1014.79 1014.46 1014.14 1013.72 1013.19 1012.66 1012.22 1011.86 1011.48 1011.05 1010.66 1010.33 1010.02 1009.75 1009.53 1009.41 1009.34 1009.17 1009.18 1009.19 1009.15 1009.08 1008.80 1008.57 1008.46 1008.26 1008.04
1015.07 1015.52 1015.40 1014.43 1014.11 1014.04 1013.93 1013.86 1013.81 1013.73 1013.57 1013.56 1013.99 1014.84 1015.21 1015.15 1014.74 1014.45 1014.14 1013.75 1013.31 1012.83 1012.34 1011.89 1011.45 1011.04 1010.65 1010.32 1010.01 1009.81 1009.53 1009.36 1009.25 1009.20 1009.20 1009.24 1009.23 1009.15 1008.85 1008.76 1008.52 1008.18 1008.03
1014.38 1014.67 1015.38 1014.60 1014.38 1014.53 1014.45 1014.42 1014.40 1014.23 1013.94 1014.31 1014.85 1015.49 1016.04 1015.76 1015.31 1014.83 1014.31 1013.89 1013.42 1012.90 1012.38 1011.86 1011.39 1010.93 1010.52 1010.21 1009.97 1009.75 1009.52 1009.38 1009.31 1009.30 1009.31 1009.34 1009.32 1009.22 1009.04 1009.01 1008.71 1008.48 1008.28
1014.50 1014.65 1014.82 1014.82 1014.94 1015.08 1015.21 1014.92 1014.71 1014.70 1014.68 1015.05 1015.52 1015.90 1016.02 1015.85 1015.55 1015.05 1014.56 1014.03 1013.49 1012.91 1012.30 1011.75 1011.24 1010.81 1010.38 1009.99 1009.82 1009.77 1009.66 1009.45 1009.43 1009.47 1009.50 1009.53 1009.53 1009.29 1009.30 1009.24 1009.02 1008.71 1008.76
1014.80 1014.80 1015.01 1015.31 1015.43 1015.40 1015.37 1015.25 1015.08 1015.19 1015.24 1015.77 1016.34 1016.40 1016.27 1016.15 1015.77 1015.24 1014.75 1014.09 1013.41 1012.70 1012.08 1011.56 1011.03 1010.50 1010.04 1009.63 1009.42 1009.58 1009.70 1009.59 1009.63 1009.64 1009.63 1009.66 1009.67 1009.61 1009.52 1009.41 1009.12 1009.07 1009.23
1015.27 1015.43 1015.42 1015.75 1016.03 1015.62 1016.02 1015.64 1015.51 1015.75 1016.11 1016.60 1016.97 1016.93 1016.73 1016.49 1016.04 1015.52 1014.93 1014.20 1013.47 1012.75 1012.10 1011.51 1010.98 1010.47 1010.01 1009.76 1009.65 1009.66 1009.85 1009.89 1009.93 1009.81 1009.70 1009.89 1009.93 1009.88 1009.69 1009.51 1009.39 1009.56 1009.80
1015.74 1015.89 1015.99 1016.29 1016.26 1016.12 1016.09 1016.04 1016.28 1016.48 1016.96 1017.35 1017.50 1017.31 1017.14 1016.78 1016.35 1015.78 1015.11 1014.42 1013.67 1012.94 1012.24 1011.65 1011.11 1010.69 1010.44 1010.11 1009.97 1010.08 1010.50 1010.42 1010.12 1010.17 1010.25 1010.25 1010.16 1010.01 1009.89 1009.70 1009.81 1010.03 1010.17
1016.43 1016.57 1016.63 1016.79 1016.71 1016.70 1016.60 1016.57 1017.19 1017.46 1017.59 1017.94 1017.99 1017.82 1017.55 1017.20 1016.73 1016.08 1015.37 1014.69 1013.96 1013.22 1012.57 1012.01 1011.52 1011.23 1010.80 1010.80 1011.04 1011.22 1011.20 1011.05 1010.81 1010.78 1010.61 1010.48 1010.23 1010.13 1010.00 1010.18 1010.31 1010.51 1010.60
Wind_Speed
10 10 9 8 7 6 5 5 5 4 4 4 5 5 7 8 8 7 9 11 11 12 11 10 11 11 9 9 10 8 8 8 10 12 10 10 12 14 12 11 11 12 12
10 10 8 7 7 6 5 5 4 4 4 5 6 7 9 10 9 9 10 11 12 12 13 14 11 11 11 11 9 8 9 7 7 14 12 11 12 12 13 15 10 10 9
10 9 7 6 6 6 5 4 4 3 6 7 8 9 10 9 9 10 10 10 10 11 12 12 11 11 11 9 9 9 9 8 8 10 11 10 9 8 9 11 12 12 9
10 9 8 7 6 5 4 3 3 5 7 8 9 9 9 9 10 11 10 10 11 10 11 12 11 11 11 10 10 12 10 10 10 9 10 10 9 9 8 10 10 11 9
11 9 8 7 5 5 4 3 4 6 7 8 9 10 10 10 9 8 11 12 11 12 12 12 10 11 14 12 10 12 11 10 9 10 10 10 9 9 9 9 10 9 10
11 9 7 6 5 4 3 5 5 6 7 8 10 10 11 9 7 2 8 11 13 13 12 12 11 14 10 12 15 15 14 11 11 10 10 10 10 9 7 9 9 9 8
9 7 6 5 4 3 4 5 6 6 7 9 10 10 11 12 6 3 7 10 13 13 11 13 11 9 10 10 11 12 13 13 14 11 12 11 12 11 9 10 12 10 10
9 7 6 4 3 3 4 5 6 6 8 9 10 11 11 11 7 4 6 12 14 14 13 13 11 13 12 9 11 12 11 10 11 8 10 11 11 12 12 11 12 12 10
8 6 5 3 3 4 5 5 6 7 8 9 10 10 11 11 7 2 7 13 14 16 10 12 11 13 11 7 11 12 12 11 8 11 12 14 15 16 14 10 8 7 8
7 6 4 3 3 5 5 6 6 7 9 8 10 10 7 9 6 1 6 11 15 13 13 13 10 12 10 9 10 11 11 11 10 10 9 10 12 11 14 10 7 7 4
7 6 4 2 3 4 5 6 7 7 8 9 10 9 9 7 7 4 2 11 11 12 11 11 11 6 8 11 11 11 12 10 12 9 8 7 10 7 7 4 7 6 6
7 6 4 2 3 3 5 6 7 7 8 9 9 9 8 9 1 4 6 8 10 13 13 10 10 11 17 15 11 14 11 10 7 7 6 6 8 5 7 4 7 8 8
7 5 3 2 3 3 5 6 7 6 7 8 8 9 10 10 10 9 7 8 13 12 12 13 17 17 17 15 16 16 9 5 6 6 6 5 6 7 10 5 7 8 9
7 4 3 3 3 4 6 5 5 7 8 9 9 10 11 11 11 12 15 15 15 12 12 12 15 14 15 12 10 6 4 4 5 6 5 4 4 7 7 3 5 6 7
7 4 2 1 2 4 5 5 7 6 5 8 9 10 12 12 12 13 13 13 12 13 13 8 7 7 6 6 5 5 5 3 4 4 5 4 4 5 7 2 4 6 5
6 5 2 3 4 5 5 7 7 5 6 7 8 6 8 9 10 14 16 16 16 16 8 7 7 6 6 5 5 5 3 4 3 3 4 3 3 4 6 2 3 6 3
3 2 1 5 4 5 5 7 9 1 10 11 8 9 11 9 11 15 14 16 13 11 7 7 7 6 6 5 5 4 4 3 3 2 3 2 3 3 5 2 3 5 3
4 1 3 4 5 6 6 7 8 8 9 10 6 8 8 10 17 11 16 12 8 7 7 7 6 6 5 5 4 4 3 3 3 2 3 2 2 3 2 1 2 3 3
4 4 3 3 4 5 7 7 8 9 9 9 10 10 12 16 13 11 12 8 8 7 7 6 6 6 5 5 4 4 4 3 3 2 2 1 2 2 2 1 2 2 3
6 4 4 4 5 7 7 8 8 8 9 9 10 10 12 12 10 10 9 7 7 7 7 7 6 6 5 5 4 3 3 2 1 1 1 1 1 1 0 1 2 2 3
4 4 4 4 6 7 8 8 8 9 9 10 10 10 9 9 9 9 9 8 8 8 8 7 7 6 5 4 4 4 3 2 0 1 1 1 2 1 3 2 2 3 3
4 4 5 6 6 7 8 7 8 9 10 10 10 10 9 8 8 9 9 9 8 8 7 7 6 6 6 5 4 3 2 2 1 2 2 2 2 3 2 2 2 2 5
5 5 6 7 7 5 7 8 8 9 10 10 11 10 9 8 9 9 9 9 9 9 8 7 7 6 6 5 2 2 0 2 2 2 3 3 2 3 1 1 2 4 5
6 7 7 6 7 7 8 8 9 9 11 11 10 9 9 9 9 11 10 9 9 9 8 7 7 8 7 5 4 3 3 3 3 3 5 4 3 2 2 1 5 8 7
7 6 6 7 7 7 7 9 11 11 11 10 9 9 9 9 9 10 10 9 9 9 10 9 7 9 9 10 9 9 6 3 6 4 4 3 3 3 2 5 6 7 8
7 7 7 6 7 7 8 10 10 10 10 10 9 9 10 9 9 9 9 10 9 9 11 8 10 13 13 12 12 8 5 4 6 6 3 3 3 3 6 7 10 6 6
Wind_Direction
153 149 149 143 142 152 176 190 200 206 227 252 272 284 292 295 288 284 283 281 287 297 291 287 289 287 285 299 295 307 309 307 296 305 305 319 317 321 307 297 297 293 290
155 155 148 147 157 178 197 196 205 236 266 279 287 295 292 289 288 282 288 302 300 302 309 310 312 300 289 289 287 311 301 291 289 297 311 316 309 295 302 305 296 301 299
160 155 150 163 182 187 191 203 230 278 294 296 296 291 294 293 287 288 292 300 301 309 314 318 312 304 293 293 296 293 298 306 305 300 311 310 308 317 312 310 312 302 299
160 160 169 180 188 183 197 221 276 302 302 300 294 292 294 287 292 292 293 298 298 309 312 313 312 300 295 310 304 295 298 302 304 291 302 306 320 317 315 299 317 308 322
165 172 174 176 187 197 210 268 290 296 297 300 298 293 288 289 283 317 300 292 298 299 303 309 322 307 301 300 292 296 306 298 298 302 303 314 311 317 318 313 304 319 315
166 172 172 178 194 212 248 275 282 288 301 296 295 289 293 290 111 170 275 284 297 297 304 312 320 313 311 294 284 290 288 289 291 293 298 298 307 308 323 309 310 330 320
164 161 168 175 206 245 273 282 287 305 308 293 292 293 297 298 150 205 243 279 301 304 304 295 305 304 300 292 293 287 281 283 273 280 283 289 302 308 313 312 317 321 307
169 160 159 171 226 244 277 281 295 303 301 294 296 300 302 299 149 213 270 281 290 292 294 291 295 293 291 290 297 298 300 296 287 286 282 288 290 307 310 305 303 299 290
155 150 162 196 226 270 280 302 304 301 298 297 300 303 303 306 144 206 291 307 307 307 301 293 283 275 282 269 285 293 300 301 296 290 254 267 271 276 272 295 299 310 312
145 151 169 160 271 285 304 305 306 294 287 300 305 304 310 291 137 111 330 323 318 318 315 302 273 254 251 240 269 287 290 299 307 298 293 288 265 267 243 254 293 290 311
134 147 152 175 249 294 296 298 295 288 306 302 306 310 282 281 297 128 161 322 323 321 315 314 312 352 231 242 239 268 273 294 297 290 287 293 283 273 268 257 272 270 279
148 147 162 193 281 307 295 291 287 292 292 303 298 294 318 330 291 154 222 251 296 306 310 306 302 322 305 277 264 262 256 270 282 280 278 278 281 283 286 297 292 276 259
150 148 169 211 281 295 290 293 281 279 293 314 316 323 329 330 323 171 227 268 270 301 303 312 300 285 280 273 255 255 249 263 277 273 272 271 275 300 296 276 275 274 264
140 147 190 245 334 287 292 287 298 305 324 323 325 331 328 321 327 353 333 327 318 316 325 310 303 296 284 286 288 272 240 253 272 281 279 279 278 277 275 288 306 297 282
127 160 223 224 246 291 276 317 307 325 338 321 328 335 324 326 352 345 323 326 322 317 313 301 308 314 315 312 301 290 266 248 256 275 276 267 271 282 277 292 312 293 287
147 174 72 317 308 312 313 314 216 254 191 207 234 265 328 316 339 319 315 316 317 316 309 307 312 312 310 314 317 314 296 290 274 265 274 261 266 270 276 292 315 282 326
101 106 80 254 324 329 330 323 330 261 216 228 217 226 231 308 317 320 329 329 315 327 324 323 321 321 321 317 313 315 309 316 296 291 272 257 259 268 261 298 309 292 29
127 110 297 347 336 328 343 335 333 339 335 340 181 244 51 9 342 354 337 325 333 333 328 327 325 324 322 318 317 317 316 340 293 256 243 237 249 265 257 258 320 340 348
180 71 335 339 1 313 340 344 349 349 343 343 347 13 13 4 332 343 335 340 332 327 328 324 322 318 321 322 322 324 316 300 296 274 236 203 231 231 243 325 319 299 298
107 60 290 331 3 4 4 358 354 347 350 356 7 10 355 340 344 343 339 333 328 327 324 320 318 312 314 318 319 318 310 311 301 249 157 160 179 250 155 68 326 11 26
103 116 274 11 28 19 4 360 354 351 358 9 8 11 358 341 339 332 330 329 328 325 321 320 317 314 310 311 313 317 315 322 5 109 124 137 135 184 92 31 357 39 46
74 43 39 38 33 17 359 358 2 359 8 10 359 358 351 347 335 330 330 329 326 320 316 313 310 308 304 301 299 309 312 331 86 105 98 98 94 80 73 35 25 60 97
62 59 54 45 18 17 7 7 13 6 10 12 3 353 348 342 334 331 331 329 327 326 325 322 321 321 322 320 305 201 214 103 88 115 120 110 102 81 48 32 65 84 96
70 56 45 33 42 10 12 12 19 22 19 10 1 348 342 336 333 332 331 331 331 332 332 333 332 335 350 4 23 66 110 103 106 108 106 99 103 100 64 65 80 99 92
66 55 47 37 25 18 16 23 26 16 14 9 356 345 339 338 338 335 332 333 334 336 340 342 347 7 26 48 63 87 77 58 105 64 84 93 88 77 89 92 89 94 96
68 52 48 39 29 20 21 33 26 13 8 8 351 347 344 345 340 337 336 338 341 343 347 353 16 35 46 57 63 61 46 38 64 53 71 60 78 81 98 103 101 106 117